Regional Weather Roundup
Issued by NWS

Current Version |  Previous Version |  Text Only |  Print | Product List |  Glossary On
Versions: 1 2 3 4 5 6 7 8 9 10 11 12 13 14 15 16 17 18 19 20 21 22 23 24 25 26 27
385
ASUS43 KMPX 211610
RWRMN
WEATHER ROUNDUP FOR MINNESOTA
NATIONAL WEATHER SERVICE TWIN CITIES/CHANHASSEN MN
1100 AM CDT TUE MAY 21 2024


NOTE: "FAIR" INDICATES FEW OR NO CLOUDS BELOW 12,000 FEET WITH NO
SIGNIFICANT WEATHER AND/OR OBSTRUCTIONS TO VISIBILITY. N/A MEANS
CURRENT SKY AND/OR WEATHER CONDITIONS ARE NOT AVAILABLE.

MNZ060>063-068>070-211700-
   Twin Cities Metro

CITY           SKY/WX    TMP DP  RH WIND       PRES   REMARKS
TWIN CITIES    LGT RAIN  66  62  87 E16       29.55F
ST PAUL        LGT RAIN  66  62  87 SE10      29.59F
CRYSTAL        CLOUDY    65  62  90 SE12      29.57F
BLAINE         PTSUNNY   66  64  94 SE8       29.58F
LAKEVILLE      CLOUDY    64  64 100 E15       29.54F
EDEN PRAIRIE   LGT RAIN  66  62  87 E13       29.54F
SOUTH ST PAUL  CLOUDY    65  63  92 SE5       29.60F
LAKE ELMO      LGT RAIN  63  63 100 SE12      29.62F
$$
MNZ001>005-007-008-013>017-022>024-027-028-211700-
   Northwest Minnesota

CITY           SKY/WX    TMP DP  RH WIND       PRES   REMARKS
BEMIDJI        LGT RAIN  54  50  87 N8        29.74F
HALLOCK        CLOUDY    61  48  63 N10       29.81F
ROSEAU         CLOUDY    61  48  63 N14       29.81F
WARROAD        CLOUDY    57  52  82 N8        29.82F
THIEF RVR FALL CLOUDY    59  44  57 N14       29.79F
CROOKSTON      CLOUDY    63  36  36 NE16G22   29.78F
FOSSTON        CLOUDY    55  46  71 NE12G21   29.76F
DETROIT LAKES  LGT RAIN  55  52  88 N12G18    29.70F FOG
MOORHEAD       LGT RAIN  55  50  82 N13       29.73F
PARK RAPIDS    RAIN      55  54  96 N13       29.69F FOG
MAHNOMEN       DRIZZLE   55  50  82 N17       29.74F
$$
MNZ006-009>011-018-025>026-211700-
   North Central Minnesota

CITY           SKY/WX    TMP DP  RH WIND       PRES   REMARKS
BAUDETTE       CLOUDY    62  49  62 NE10      29.81F
FLAG ISLAND    CLOUDY    57  46  67 N13       29.83F
INTL FALLS     CLOUDY    61  53  75 E5        29.78S
WASKISH        CLOUDY    63  48  59 NE5       29.77S
BIG FORK       CLOUDY    59  55  88 NE7       29.80F
LONGVILLE      HVY RAIN  55  55 100 NE3       29.69F
GRAND RAPIDS   RAIN      55  54  96 VRB3      29.74F FOG
CRANE LAKE       N/A     57  55  94 CALM      29.81
ORR            LGT RAIN  55  55 100 CALM      29.76F
COOK           CLOUDY    57  54  88 NE3       29.75F
WALKER         RAIN      55  55 100 NE7       29.71F
$$
MNZ012-019>021-037-211700-
   Northeast Minnesota

CITY           SKY/WX    TMP DP  RH WIND       PRES   REMARKS
DULUTH         LGT RAIN  52  50  93 E16       29.72F FOG
ELY            LGT RAIN  55  55 100 E7        29.78F
HIBBING        LGT RAIN  55  54  96 E7        29.74S
EVELETH        CLOUDY    57  53  87 E5        29.75F
DULUTH HARBOR  RAIN      46  46 100 NE23      29.73F FOG
TWO HARBORS    CLOUDY    54  52  94 NE13G22   29.74F
GRAND MARAIS     N/A     45  41  86 E13       29.82F
G MARAIS ARPRT CLOUDY    54  39  58 E7        29.83F
$$
MNZ029>031-032-039>041-046>048-054>057-064-211700-
   West Central Minnesota

CITY           SKY/WX    TMP DP  RH WIND       PRES   REMARKS
FERGUS FALLS   LGT RAIN  55  55 100 N17       29.65F FOG
WHEATON        RAIN      55  54  94 N10G18    29.66F
MORRIS         LGT RAIN  57  57 100 NW10      29.59S VSB 1
ALEXANDRIA     CLOUDY    58  57  97 N12       29.59F
ELBOW LAKE     HVY RAIN  57  56  94 N13G22    29.62F
WADENA         LGT RAIN  57  55  94 NE17G24   29.62F
GLENWOOD       CLOUDY    59  57  94 N13G18    29.58F
APPLETON       LGT RAIN  59  57  94 N16       29.56F
BENSON         CLOUDY    61  57  88 N10       29.55F
ORTONVILLE     RAIN      55  55 100 N20G26    29.59F
MADISON        HVY RAIN  59  59 100 N18       29.58F
WILLMAR        CLOUDY    63  61  94 N15       29.51F
$$
MNZ033>034-036-042>043-049>051-058-059-211700-
   Central Minnesota

CITY           SKY/WX    TMP DP  RH WIND       PRES   REMARKS
ST CLOUD       CLOUDY    65  62  90 NE6       29.55F
SAUK CENTRE    LGT RAIN  59  59 100 NE9G16    29.58F
PAYNESVILLE    CLOUDY    61  59  94 N12       29.55F
AITKIN         RAIN      54  54 100 NE13G21   29.66F
PINE RIVER     RAIN      55  55 100 N9G17     29.70F
BRAINERD       RAIN      57  55  93 NE9       29.64F FOG
STAPLES        CLOUDY    61  57  88 NE12G17   29.62F
LONG PRAIRIE   RAIN      57  57 100 NE6G17    29.60F
LITTLE FALLS   LGT RAIN  57  55  94 NE3       29.59F
LITCHFIELD     CLOUDY    64  63  94 E10       29.49F
BUFFALO        CLOUDY    66  64  94 SE15G22   29.54F
MAPLE LAKE     CLOUDY    66  59  78 E7        29.55F
HUTCHINSON     CLOUDY    65  60  85 NE16G24   29.45F
$$
MNZ037-044-045-052-053-211700-
   East Central Minnesota

CITY           SKY/WX    TMP DP  RH WIND       PRES   REMARKS
PRINCETON      HVY RAIN  64  63  94 E8        29.59F
MORA           DRIZZLE   57  57 100 NE3       29.66F
CAMBRIDGE      DRIZZLE   63  59  88 E7        29.60F
RUSH CITY      DRIZZLE   60  57  91 NE7       29.62F
MOOSE LAKE     LGT RAIN  52  48  87 NE5       29.68F
HINCKLEY       DRIZZLE   57  57 100 NE7       29.65F
CLOQUET        LGT RAIN  52  50  93 E12G17    29.70F
MCGREGOR       CLOUDY    54  52  94 NE9G18    29.69F
$$
MNZ071>073-080-081-089-090-097-098-211700-
   Southwest Minnesota

CITY           SKY/WX    TMP DP  RH WIND       PRES   REMARKS
MONTEVIDEO     RAIN      61  61 100 N7        29.53F
GRANITE FALLS  RAIN      65  64  96 N9        29.53F
CANBY          RAIN      58  57  97 NW16G24   29.55F
MARSHALL       LGT RAIN  61  60  97 N7        29.53F FOG
REDWOOD FALLS  LGT RAIN  64  61  90 N6        29.49R FOG
OLIVIA         LGT RAIN  64  61  88 N3        29.52R
WINDOM         CLOUDY    63  61  94 SW5       29.52S
WORTHINGTON    CLOUDY    62  61  96 S15       29.53F
JACKSON        CLOUDY    63  59  88 S12G17    29.53R
TRACY          LGT RAIN  61  61 100 E5        29.52R
SLAYTON        RAIN      59  58  95 CALM      29.54F
$$
MNZ065>067-074>077-082>085-091>093-211700-
   South Central Minnesota

CITY           SKY/WX    TMP DP  RH WIND       PRES   REMARKS
MANKATO        CLOUDY    63  61  93 E16       29.43F
ST JAMES       CLOUDY    63  63 100 SW12      29.50R
FAIRMONT       CLOUDY    63  59  87 S12       29.51R
GLENCOE        CLOUDY    64  61  91 E7G23     29.43F
FARIBAULT      LGT RAIN  63  61  94 E20G26    29.43F
OWATONNA       LGT RAIN  63  61  94 E20G28    29.46F
WASECA         CLOUDY    61  59  94 E23G29    29.44F
ALBERT LEA     LGT RAIN  61  61 100 E22       29.44F
$$
MNZ078>079-086>088-094>096-211700-
   Southeast Minnesota

CITY           SKY/WX    TMP DP  RH WIND       PRES   REMARKS
ROCHESTER      LGT RAIN  64  61  90 SE23G30   29.59F
RED WING       LGT RAIN  66  63  88 S10G20    29.63F
STANTON        CLOUDY    65  61  86 SE9       29.58F
DODGE CENTER   DRIZZLE   63  63 100 SE21      29.55F
WINONA         LGT RAIN  63  61  94 S5        29.71R
AUSTIN         LGT RAIN  63  61  94 SE16      29.55F
PRESTON        LGT RAIN  63  63 100 SE13G18   29.67F
$$
ABBREVIATIONS USED IN REMARKS
   TC - TEMPERATURES IN CELSIUS
  WCI - WIND CHILL INDEX
   HX - HEAT INDEX
  VSB - VISIBILITY
$$